BEIDOU-2 M6 (C14)

Last updated on Sat Dec 13 2025 00:03:25 GMT+0000 (Coordinated Universal Time)

1 38775U 12050B 25344.89627477 -.00000059 00000+0 00000+0 0 9999 2 38775 56.3769 69.1285 0011138 344.7378 15.2504 1.86230804 89803
UTC large
Height (km)
Speed (km/s)
/
Latitude / Longitude
Inclination (degrees)
Orbital Period (minutes)
Azimuth
Elevation
Range (km)
Doppler Factor

Next 0 passes for location: London (51.5072 / 0.1276)

Sorry there are no passes over London.